Погода в Новоникольском

Россия / Липецкая область     53°12′17″N   39°08′46″E
темп.,
°C
ветер,
м/с
пор.,
м/с
влажн.,
%
обл.,
%
осадки,
мм/ч
давл.,
гПа
погр.,
м
27 февраля, сб
сб2700:00+1з6149278 0.0 1007428
03:000з6159053 0.0 1006490
06:00+1зсз71390100 0.0 1004800
09:00+1зсз81591100 0.1 1005825
12:00+1сз81499100 0.1 1006767
15:00−2ссз7148588 0.2 1009698
18:00−6с411890 0.0 1011288
21:00−8ссз38924 0.0 1013193
28 февраля, вс
вс2800:00−8ссз379555 0.0 1014158
03:00−9ссз359656 0.0 1015105
06:00−9ссз359685 0.0 1016137
09:00−8ссз369480 0.1 1016299
12:00−5сз349285 0.1 1016285
15:00−3сз249390 0.1 1016343
18:00−3с249598 0.0 1016128
21:00−6ссв229692 0.1 101921
1 марта, пн
пн100:00−6всв119685 0.1 102021
03:00−7з119683 0.1 102221
06:00−7з229782 0.1 102321
09:00−6з229782 0.1 102469
12:00−3зсз239249 0.0 1024269
15:00−2з349259 0.0 1024403
18:00−5зюз349524 0.0 102371
21:00−5зюз489631 0.0 1022177
2 марта, вт
вт200:00−2юз51094100 0.1 1020325
03:00−1зюз71397100 0.3 1017551
06:00+1з81492100 1.0 1013784
09:000з71298100 1.3 1010640
12:00+1сз71298100 0.3 1010780
15:00+1сз61288100 0.4 1010877
18:00−1сз5138987 0.0 1011402
21:00−2сз5139272 0.1 1012490
3 марта, ср
ср300:00−2сз6139385 0.1 1012523
03:00−3сз6129491 0.2 1013503
06:00−3сз61293100 0.1 1014767
09:00−3сз7139199 0.3 1015730
12:00−2ссз81287100 0.1 1016939
15:00−1сз71182100 0.1 10181142
18:00−3сз6138796 0.1 1018611
21:00−5сз5128948 0.1 1020346